Regional Weather Roundup
Issued by NWS Sterling, VA

Home | Current Version | Previous Version | Graphics & Text | Print | Product List | Glossary On
Versions: 1 2 3 4 5 6 7 8 9 10 11 12 13 14 15 16 17 18 19 20 21 22 23 24 25 26 27 28 29 30 31 32 33 34 35 36 37 38 39 40 41 42 43 44 45 46 47 48 49 50
000
ASUS41 KLWX 111710
RWRLWX

REGIONAL WEATHER ROUNDUP
NATIONAL WEATHER SERVICE BALTIMORE MD/WASHINGTON DC
1200 PM EST THU FEB 11 2016

Note: "FAIR" indicates few or no clouds below 12,000 feet
with no significant weather and/or obstructions to visibility.
 TC=TEMPERATURE CELSIUS

 * =Non NWS site. Station does not report precipitation (e.g. rain,
    snow, etc.), thunder, or fog.

DCZ001-MDZ009-015-VAZ040>042-051-053>054-111800-
WASHINGTON METRO

CITY           SKY/WX    TMP DP  RH WIND       PRES   REMARKS
WASHINGTON NAT FAIR      28   1  31 W20G32    30.15S WCI  15
DULLES         FAIR      24   1  36 NW21      30.12S WCI   9
ANDREWS AFB    MOSUNNY   26   0  32 W22G30    30.11R WCI  12
FT BELVOIR     FAIR      28  -1  28 W13G24    30.14F WCI  17
QUANTICO       FAIR      30   2  30 NW17G25   30.16F WCI  18
COLLEGE PARK*  PTSUNNY   27   1  33 SW16      30.13F WCI  14
LEESBURG*      PTSUNNY   28  10  47 NW14G21   30.13S WCI  17
MANASSAS*      SUNNY     28   5  37 NW18G24   30.14S WCI  16
GAITHERSBURG*  CLOUDY    21   3  45 NW16G25   30.13F WCI   7

$$

MDZ006>007-011-014-111800-
BALTIMORE METRO

CITY           SKY/WX    TMP DP  RH WIND       PRES   REMARKS
BWI AIRPORT    PTSUNNY   25   2  37 NW17G26   30.11S WCI  12
MD SCIENCE CTR   N/A     25   1  35 MISG      30.14F
MARTIN STATE   MOSUNNY   27   7  43 W22G32    30.12S WCI  12
ANNAPOLIS      MOSUNNY   26   3  37 W20G31    30.11F WCI  12
FORT MEADE*    MOSUNNY   27   3  36 W15G29    30.14F WCI  15

$$

MDZ012-015-019>023-111800-
MARYLAND EASTERN SHORE

CITY           SKY/WX    TMP DP  RH WIND       PRES   REMARKS
OCEAN CITY     MOSUNNY   28   3  34 W20G28    30.08F WCI  15
SALISBURY      MOSUNNY   29   5  36 W16G26    30.10S WCI  17
BAY BRIDGE AP*   N/A     27   3  36 W15G26    30.12S WCI  15
CAMBRIDGE*     MOSUNNY   28   3  34 NW12G22   30.11F WCI  18
EASTON*        PTSUNNY   27   5  39 NW20G29   30.14F WCI  13

$$

MDZ017>025-111800-
SOUTHERN MARYLAND

CITY           SKY/WX    TMP DP  RH WIND       PRES   REMARKS
PATUXENT RIVER MOSUNNY   29   4  34 W15G26    30.12F WCI  18
ST INIGOES     MOSUNNY   28   6  39 W15G23    30.13F WCI  16
LEONARDTOWN*   PTSUNNY   28   3  34 W13       30.13  WCI  18

$$

MDZ003>005-111800-
NORTH CENTRAL MARYLAND

CITY           SKY/WX    TMP DP  RH WIND       PRES   REMARKS
FREDERICK*     PTSUNNY   23   9  54 NW18G29   30.15S WCI   9
HAGERSTOWN APT MOSUNNY   21   5  50 NW23G30   30.07F WCI   5
WESTMINSTER*   MOSUNNY   19   9  63 W22G29    30.05S WCI   3

$$

MDZ501>502-111800-
WESTERN MARYLAND

CITY           SKY/WX    TMP DP  RH WIND       PRES   REMARKS
OAKLAND*       FOG        5   1  85 W12G21    29.96R VSB 1/4 WCI -11
CUMBERLAND*    MOSUNNY   21   1  42 W18G29    30.18R WCI   6

$$

VAZ025>031-111800-
SHENANDOAH VALLEY

CITY           SKY/WX    TMP DP  RH WIND       PRES   REMARKS
WINCHESTER*    FAIR      25   3  39 W20G29    30.10F WCI  11
FRONT ROYAL*   FAIR      25   1  36 W20G31    30.10S WCI  11
LURAY*         FAIR      27   1  33 NW6       30.10R
NEW MARKET*    FAIR      24  -2  32 NW10G18   30.10R WCI  13
STAUNTON*      FAIR      29   1  29 NW12G18   30.11F WCI  19
WAYNESBORO*    FAIR      24  -4  29 W7G16     30.08S

$$

WVZ021-048>050-054>055-111800-
EASTERN WEST VIRGINIA PANHANDLE

CITY           SKY/WX    TMP DP  RH WIND       PRES   REMARKS
MARTINSBURG    FAIR      23   1  38 W24G32    30.11S WCI   7
PETERSBURG*    FAIR      21   1  42 W20G31    30.14S WCI   5

$$

VAZ036>039-050-111800-
CENTRAL FOOTHILLS

CITY           SKY/WX    TMP DP  RH WIND       PRES   REMARKS
CHARLOTTESVILL FAIR      28  -3  26 NW13G21   30.12F WCI  17
CULPEPER*      FAIR      28   1  31 W14       30.14F WCI  17
ORANGE*        FAIR      30   1  29 S13       30.15F WCI  20
GORDONSVILLE*  FAIR      28   0  29 NW10G17   30.13F WCI  19
WARRENTON*     PTSUNNY   30   7  37 W8        30.13S WCI  23

$$

VAZ055>057-111800-
NORTH AND CENTRAL PIEDMONT

CITY           SKY/WX    TMP DP  RH WIND       PRES   REMARKS
FREDERICKSBRG* FAIR      29   5  35 W16G22    30.14F WCI  17
STAFFORD*      FAIR      28   0  30 W8G16     30.18F WCI  20

$$

NCZ024-NYZ072-PAZ021-071-VAZ022-071-111800-
OTHER REGIONAL OBSERVATIONS

CITY           SKY/WX    TMP DP  RH WIND       PRES   REMARKS
NEW YORK CITY  CLOUDY    26   0  32 NW7       29.92F
PHILADELPHIA   PTSUNNY   25  -2  31 W24G30    30.03F WCI   9
PITTSBURGH     PTSUNNY   16   3  56 W20G26    30.12S WCI  -1
ROANOKE        FAIR      26   1  34 NW17G30   30.17S WCI  13
RICHMOND       FAIR      28   2  32 W17G25    30.16F WCI  16
RALEIGH        SUNNY     35   5  28 W13G21    30.20F WCI  26

$$

ANZ530>537-111800-
MARINE OBSERVATIONS

STATION/POSITION TIME  TEMP    WIND        PRES
                       AIR SEA DIR/SP/G
                 (UTC) (F)     (DEG/KT/KT) (MB)
THOMAS PT LIGHT  1700   24 38  300/ 23/ 25 1020.2F
BALT KEY BRIDGE  1600          270/ 22/ 26 1019.4R
COVE POINT       1600          320/ 16/ 21 1020.8F
LEWISETTA        1606   26 39  290/ 17/ 22 1020.4F
SOLOMONS ISLAND  1600      40  300/ 13/ 18   N/A
PINEY POINT      1600          290/ 15/ 20   N/A

$$




USA.gov is the U.S. government's official web portal to all federal, state and local government web resources and services.